Rm Thomas — FNMP — position and weather

sailwx.info

Track history (hours):
 
Tides and Currents Weather Stations Pressure Air Temp Water Temp Dewpoint Dewpoint Depression Visibility Wind Speed Wind Dir Waves Ship Positions

Rm Thomas

Last reported at 2014-Oct-24 11:14 UTC. Time now 2014-Oct-24 16:14 UTC.
Position N 44°53' W 000°32'.

Length 25 m; draft 4 m.

Type: Tug. MMSI: 228278700.

Date/timePositionNaut miles runAvg speedWind from/ knotsBaromVisibWave heightAir tempDewpointWater temp
2014-Oct-24 11:14N 44°53' W 000°32'0 0.0
2014-Oct-24 10:31N 44°53' W 000°32'0 0.0
2014-Oct-24 08:33N 44°53' W 000°32'0 0.0
2014-Oct-24 07:33N 44°53' W 000°32'4 4.1
2014-Oct-24 06:33N 44°57' W 000°33'3 2.6
2014-Oct-24 05:33N 44°60' W 000°33'0 0.5
2014-Oct-24 04:33N 45°00' W 000°34'0 0.0
2014-Oct-23 07:29N 45°00' W 000°34'0 0.0
2014-Oct-23 06:30N 45°00' W 000°34'0 0.3
2014-Oct-23 05:29N 45°00' W 000°34'1 1.3
2014-Oct-23 04:33N 45°01' W 000°35'  
2014-Oct-20 03:31N 44°59' W 000°33'6 0.3
2014-Oct-19 05:09N 44°53' W 000°32'0 0.0
2014-Oct-19 04:13N 44°53' W 000°32'0 0.0
2014-Oct-19 03:27N 44°53' W 000°32'7 7.5
2014-Oct-19 02:33N 44°60' W 000°33'1 1.5
2014-Oct-19 01:33N 45°01' W 000°35'3 3.4
2014-Oct-19 00:33N 44°58' W 000°32'5 4.2
2014-Oct-18 23:29N 44°53' W 000°32'0 0.0
2014-Oct-18 22:33N 44°53' W 000°32'0 0.0
2014-Oct-18 21:33N 44°53' W 000°32'0 0.0
2014-Oct-18 20:33N 44°53' W 000°32'  
2014-Oct-16 09:22N 44°55' W 000°33'1 0.0
2014-Oct-15 07:15N 44°56' W 000°33'1 0.1
2014-Oct-14 19:20N 44°55' W 000°33'5 6.4
2014-Oct-14 18:32N 44°60' W 000°33'4 3.8
2014-Oct-14 17:32N 44°56' W 000°33'  
Track history (hours):
 
Tides and Currents Weather Stations Pressure Air Temp Water Temp Dewpoint Dewpoint Depression Visibility Wind Speed Wind Dir Waves Ship Positions

Rm Thomas

Last reported at 2014-Oct-24 11:14 UTC. Time now 2014-Oct-24 16:14 UTC.
Position N 44°53' W 000°32'.

Length 25 m; draft 4 m.

Type: Tug. MMSI: 228278700.

Date/timePositionNaut miles runAvg speedWind from/ knotsBaromVisibWave heightAir tempDewpointWater temp
2014-Oct-24 11:14N 44°53' W 000°32'0 0.0
2014-Oct-24 10:31N 44°53' W 000°32'0 0.0
2014-Oct-24 08:33N 44°53' W 000°32'0 0.0
2014-Oct-24 07:33N 44°53' W 000°32'4 4.1
2014-Oct-24 06:33N 44°57' W 000°33'3 2.6
2014-Oct-24 05:33N 44°60' W 000°33'0 0.5
2014-Oct-24 04:33N 45°00' W 000°34'0 0.0
2014-Oct-23 07:29N 45°00' W 000°34'0 0.0
2014-Oct-23 06:30N 45°00' W 000°34'0 0.3
2014-Oct-23 05:29N 45°00' W 000°34'1 1.3
2014-Oct-23 04:33N 45°01' W 000°35'  
2014-Oct-20 03:31N 44°59' W 000°33'6 0.3
2014-Oct-19 05:09N 44°53' W 000°32'0 0.0
2014-Oct-19 04:13N 44°53' W 000°32'0 0.0
2014-Oct-19 03:27N 44°53' W 000°32'7 7.5
2014-Oct-19 02:33N 44°60' W 000°33'1 1.5
2014-Oct-19 01:33N 45°01' W 000°35'3 3.4
2014-Oct-19 00:33N 44°58' W 000°32'5 4.2
2014-Oct-18 23:29N 44°53' W 000°32'0 0.0
2014-Oct-18 22:33N 44°53' W 000°32'0 0.0
2014-Oct-18 21:33N 44°53' W 000°32'0 0.0
2014-Oct-18 20:33N 44°53' W 000°32'  
2014-Oct-16 09:22N 44°55' W 000°33'1 0.0
2014-Oct-15 07:15N 44°56' W 000°33'1 0.1
2014-Oct-14 19:20N 44°55' W 000°33'5 6.4
2014-Oct-14 18:32N 44°60' W 000°33'4 3.8
2014-Oct-14 17:32N 44°56' W 000°33'  

Dump ship's entire track history